Location: Bushey
(51.6333°N, 0.3667°W)
Time: 17:37:57
(UTC+00:00)

Cosmos 1821 Rocket - Pass Details

Date: 03 March 2021
Orbit: 945 x 1005 km, 82.9° (Epoch: 16 April)

Event Time Altitude Azimuth Distance (km) Brightness Sun altitude
Exits shadow 20:41:57 71° 83° (E) 1,024 3.8 -27.5°
Drops below altitude 10° 20:47:56 10° 13° (NNE) 2,703 6.5 -28.3°
Sets 20:50:25 0° 12° (NNE) 3,646 7.2 -28.6°
